EHI
0 0 0 0 0 0 0 0 0 0 0 0 0 0 0 0 0 0 0 0 0 0 0 0 0 0 0 0 0 0 0 0 0 0 0 0 0 0 0 0 0 0 0 0
0 0 0 0 0 0 0 0 0 0 0 0 0 0 0 0 0 0 0 0 0 0 0 0 0 0 0 0 0 0 0 0 0 0 0 0 0 0 0 0 0 0 0 0
0 0 0 0 0 0 0 0 0 0 0 0 0 0 0 0 0 0 0 0 0 0 0 0 0 0 0 0 0 0 0 0 0 0 0 0 0 0 0 0 0 0 0 0
0 0 0 0 0 0 0 0 0 0 0 0 0 0 0 0 0 0 0 0 0 0 0 0 0 0 0 0 0 0 0 0 0 0 0 0 0 0 0 0 0 0 0 0
0 0 0 0 0 0 0 0 0 0 0 0 0 0 0 0 0 0 0 0 0 0 0 0 0 0 0 0 0 0 0 0 0 0 0 0 0 0 0 0 0 0 0 0
0 0 0 0 0 0 0 0 0 0 0 0 0 0 0 0 0 0 0 0 0 0 0 0 0 0 0 0 0 0 0 0 0 0 0 0 0 0 0 0 0 0 0 0
0 0 0 0 0 0 0 0 0 0 0 0 0 0 0 0 0 0 0 0 0 0 0 0 0 0 0 0 0 0 0 0 0 0 0 0 0 0 0 0 0 0 0 0
0 0 0 0 0 0 0 0 0 0 0 0 0 0 0 0 0 0 0 0 0 0 0 0 0 0 0 0 0 0 0 0 0 0 0 0 0 0 0 0 0 0 0 0
0 0 0 0 0 0 0 0 0 0 0 0 0 0 0 0 0 0 0 0 0 0 0 0 0 0 0 0 0 0 0 0 0 0 0 0 0 0 0 0 0 0 0 0
0 0 0 0 0 0 0 0 0 0 0 0 0 0 0 0 0 0 0 0 0 0 0 0 0 0 0 0 0 0 0 0 0 0 0 0 0 0 0 0 0 0 0 0
0 0 0 0 0 0 0 0 0 0 0 0 0 0 0 0 0 0 0 0 0 0 0 0 0 0 0 0 0 0 0 0 0 0 0 0 0 0 0 0 0 0 0 0
0 0 0 0 0 0 0 0 0 0 0 0 0 0 0 0 0 0 0 0 0 0 0 0 0 0 0 0 0 0 0 0 0 0 0 0 0 0 0 0 0 0 0 0
0 0 0 0 0 0 0 0 0 0 0 0 0 0 0 0 0 0 0 0 0 0 0 0 0 0 0 0 0 0 0 0 0 0 0 0 0 0 0 0 0 0 0 0
0 0 0 0 0 0 0 0 0 0 0 0 0 0 0 0 0 0 0 0 0 0 0 0 0 0 0 0 0 0 0 0 0 0 0 0 0 0 0 0 0 0 0 0
0 0 0 0 0 0 0 0 0 0 0 0 0 0 0 0 0 0 0 0 0 0 0 0 0 0 0 0 0 0 0 0 0 0 0 0 0 0 0 0 0 0 0 0
0 0 0 0 0 0 0 0 0 0 0 0 0 0 0 0 0 0 0 0 0 0 0 0 0 0 0 0 0 0 0 0 0 0 0 0 0 0 0 0 0 0 0 0
0 0 0 0 0 0 0 0 0 0 0 0 0 0 0 0 0 0 0 0 0 0 0 0 0 0 0 0 0 0 0 0 0 0 0 0 0 0 0 0 0 0 0 0
0 0 0 0 0 0 0 0 0 0 0 0 0 0 0 0 0 0 0 0 0 0 0 0 0 0 0 0 0 0 0 0 0 0 0 0 0 0 0 0 0 0 0 0
0 0 0 0 0 0 0 0 0 0 0 0 0 0 0 0 0 0 0 0 0 0 0 0 0 0 0 0 0 0 0 0 0 0 0 0 0 0 0 0 0 0 0 0
0 0 0 0 0 0 0 0 0 0 0 0 0 0 0 0 0 0 0 0 0 0 0 0 0 0 0 0 0 0 0 0 0 0 0 0 0 0 0 0 0 0 0 0
0 0 0 0 0 0 0 0 0 0 0 0 0 0 0 0 0 0 0 0 0 0 0 0 0 0 0 0 0 0 0 0 0 0 0 0 0 0 0 0 0 0 0 0
0 0 0 0 0 0 0 0 0 0 0 0 0 0 0 0 0 0 0 0 0 0 0 0 0 0 0 0 0 0 0 0 0 0 0 0 0 0 0 0 0 0 0 0
0 0 0 0 0 0 0 0 0 0 0 0 0 0 0 0 0 0 0 0 0 0 0 0 0 0 0 0 0 0 0 0 0 0 0 0 0 0 0 0 0 0 0 0
0 0 0 0 0 0 0 0 0 0 0 0 0 0 0 0 0 0 0 0 0 0 0 0 0 0 0 0 0 0 0 0 0 0 0 0 0 0 0 0 0 0 0 0
0 0 0 0 0 0 0 0 0 0 0 0 0 0 0 0 0 0 0 0 0 0 0 0 0 0 0 0 0 0 0 0 0 0 0 0 0 0 0 0 0 0 0 0
0 0 0 0 0 0 0 0 0 0 0 0 0 0 0 0 0 0 0 0 0 0 0 0 0 0 0 0 0 0 0 0 0 0 0 0 0 0 0 0 0 0 0 0
0 0 0 0 0 0 0 0 0 0 0 0 0 0 0 0 0 0 0 0 0 0 0 0 0 0 0 0 0 0 0 0 0 0 0 0 0 0 0 0 0 0 0 0
Wind_Speed
1 1 3 6 9 12 13 14 12 12 15 15 14 14 13 12 9 8 8 10 12 12 12 11 10 9 9 8 7 7 6 5 4 4 4 4 4 4 4 4 4 4 5 5
1 1 3 5 9 12 14 15 16 17 18 14 13 12 12 12 11 11 12 13 13 13 13 13 12 11 10 9 8 7 7 6 5 5 5 5 4 4 4 4 4 4 4 4
2 0 3 7 7 11 9 9 11 14 13 12 12 12 13 13 12 13 13 13 13 14 14 13 13 12 11 10 9 8 7 7 6 6 6 5 5 5 5 5 5 5 4 5
1 2 6 1 1 3 7 7 8 10 12 12 13 14 14 12 12 13 13 12 12 13 12 12 11 11 10 10 10 9 8 7 7 7 6 6 6 6 5 5 4 4 4 4
2 3 5 1 0 2 4 1 2 5 9 11 12 11 8 6 9 12 12 11 10 10 10 10 12 12 12 11 10 9 9 8 8 7 7 7 7 6 5 5 4 3 3 3
3 4 3 2 2 1 3 3 5 7 10 11 10 7 6 10 11 10 8 6 5 6 9 11 12 12 12 11 11 10 9 8 8 7 8 7 7 6 5 5 4 4 3 2
5 5 3 3 3 2 4 2 8 9 10 10 8 8 12 13 11 8 5 2 3 6 8 9 12 12 12 11 11 9 9 8 8 8 7 7 7 6 6 5 5 4 4 4
4 5 2 4 1 1 4 6 7 9 10 11 11 12 11 10 8 6 3 0 3 5 6 8 10 12 11 10 9 9 9 9 8 8 7 7 7 6 6 6 6 6 5 5
3 1 4 3 2 3 5 8 8 9 11 11 11 10 10 9 7 5 3 0 2 4 6 7 9 10 10 10 10 10 10 10 9 9 7 7 8 8 7 6 5 5 5 5
4 2 4 4 2 5 8 9 10 10 11 11 11 11 10 8 6 4 2 2 3 5 6 7 9 9 8 9 11 11 11 10 9 9 8 8 7 7 7 7 7 6 6 5
5 4 7 3 6 12 12 11 11 11 10 10 10 10 9 8 7 5 3 3 4 5 6 7 8 9 9 10 11 11 11 10 9 9 8 8 8 7 8 8 8 7 6 5
4 6 8 11 12 14 14 13 13 13 12 11 9 10 10 8 7 5 4 4 4 6 6 7 8 9 10 10 12 11 10 10 8 8 8 7 7 7 11 10 12 13 10 7
7 9 11 14 14 12 13 13 13 12 12 12 10 9 9 8 7 6 5 5 5 6 6 6 7 9 10 11 12 12 11 10 8 8 8 8 8 8 7 9 14 15 16 15
8 8 9 9 11 13 13 13 11 11 10 9 9 9 8 8 7 7 6 5 5 5 6 6 7 8 9 11 12 12 11 10 9 8 8 8 8 8 7 7 7 7 11 16
6 8 11 12 12 11 11 11 11 10 10 9 8 8 8 8 8 7 7 5 5 5 5 6 7 7 7 10 11 12 10 8 8 8 7 8 7 7 7 7 7 6 5 8
11 11 10 10 11 11 11 10 10 10 10 9 9 8 8 8 8 7 6 5 5 5 5 5 6 5 5 8 10 9 9 11 10 7 7 7 7 7 7 7 7 7 7 7
9 9 10 11 12 12 11 10 10 10 9 9 9 9 8 8 7 6 6 5 5 5 4 4 4 3 4 7 8 7 7 8 12 8 7 7 7 8 8 7 7 7 7 8
8 10 11 11 11 11 11 10 9 9 9 9 9 8 7 7 7 7 6 6 5 3 2 3 4 3 4 5 5 5 6 6 7 7 7 7 7 7 7 7 8 8 6 7
9 10 11 11 10 10 10 9 9 9 8 8 8 8 7 6 6 7 6 5 4 4 3 4 5 3 3 4 4 4 5 5 5 6 6 8 7 6 7 7 7 7 7 6
9 10 10 11 10 9 10 9 9 8 8 7 7 7 7 6 6 6 6 4 2 3 4 5 4 3 3 3 4 3 4 5 5 5 5 5 6 6 6 7 7 7 7 7
10 10 10 10 10 10 9 9 9 9 8 7 7 7 7 7 6 5 5 4 2 4 5 5 3 3 2 2 3 3 3 4 4 4 4 5 5 5 6 6 6 6 6 6
9 9 10 10 10 10 9 8 8 9 8 7 7 6 6 6 5 5 4 3 4 6 5 3 3 4 4 3 2 2 2 3 3 3 4 4 5 5 5 6 6 6 6 6
9 9 10 10 10 11 11 9 9 8 9 8 7 7 6 6 4 4 4 3 3 6 5 3 5 6 5 2 1 2 2 3 3 3 4 4 4 5 5 5 5 5 5 6
10 10 10 10 9 10 11 10 8 7 8 8 7 7 6 5 4 4 4 5 6 6 4 4 6 6 4 2 2 2 2 2 3 3 3 3 4 4 4 5 5 5 5 6
10 10 10 9 9 8 9 9 8 8 8 7 7 7 6 5 5 4 3 4 5 5 3 4 5 5 2 2 2 2 2 2 3 3 3 3 3 4 4 4 4 5 5 5
9 8 8 8 8 8 7 6 6 6 6 6 6 5 4 4 5 4 4 4 5 4 3 2 3 3 2 2 2 2 2 2 3 3 3 3 4 4 4 4 5 4 4 4
9 8 7 7 7 6 6 6 6 7 6 6 6 5 4 4 4 4 4 3 3 3 2 2 2 2 2 2 2 2 2 2 2 2 3 3 3 3 4 5 4 4 4 4
Wind_Direction
63 97 171 211 216 212 218 234 247 256 259 264 272 282 288 290 281 259 231 214 207 204 198 192 189 188 185 183 182 182 186 191 190 179 169 159 150 138 126 114 104 103 105 103
144 153 215 242 236 231 235 242 249 262 269 275 284 286 281 277 270 255 241 227 217 211 203 199 194 189 185 184 182 185 191 191 180 177 172 165 155 144 133 122 115 109 107 107
173 131 253 252 242 227 227 231 244 256 272 299 298 289 282 279 272 261 252 238 223 213 208 203 196 188 185 181 177 185 191 186 182 180 175 167 158 150 141 132 124 116 111 110
155 203 235 56 56 247 237 259 261 272 290 301 300 298 288 280 277 268 258 246 231 219 210 199 187 181 175 172 177 184 188 186 184 181 175 165 160 155 146 138 133 126 121 118
201 245 271 312 30 211 215 247 0 304 309 316 318 299 280 288 285 275 268 255 240 219 200 183 177 172 168 172 178 185 188 187 185 180 173 169 166 159 150 142 136 134 129 125
197 246 249 69 33 290 222 186 30 340 328 328 326 310 326 344 321 300 285 266 232 190 173 171 170 166 169 175 182 189 188 185 181 179 176 174 166 157 150 147 148 149 143 147
221 243 269 3 330 212 240 21 348 333 328 326 313 297 309 317 319 317 310 277 177 165 168 168 163 166 174 178 187 184 177 176 177 178 176 169 160 156 153 158 163 172 177 189
214 228 240 29 43 9 352 338 324 325 326 320 309 306 309 314 320 325 334 47 156 159 160 159 166 172 177 184 179 171 171 174 177 176 171 166 163 161 165 171 179 189 200 205
259 314 36 13 36 15 343 322 322 320 320 319 314 314 317 317 319 323 321 212 173 166 159 165 177 183 183 179 171 171 174 178 179 177 176 174 176 174 176 186 197 200 206 213
282 296 340 327 3 352 338 322 315 313 313 313 311 312 313 312 310 308 286 230 194 182 181 183 188 194 189 173 172 175 181 182 182 183 183 183 186 189 191 196 202 206 209 215
284 319 330 333 337 334 326 320 316 316 314 310 308 307 308 304 300 296 278 241 213 208 207 201 192 196 189 178 177 182 186 186 188 192 191 194 200 204 206 211 210 207 210 211
306 334 312 301 314 319 316 315 317 313 311 312 309 304 305 300 296 287 274 250 234 227 222 211 199 198 193 186 186 186 189 192 192 194 195 199 203 212 223 224 224 227 230 225
286 301 292 290 300 310 310 309 310 308 304 305 306 305 302 298 299 289 275 259 248 241 233 220 209 206 198 191 192 196 197 194 194 195 197 199 203 208 212 220 228 232 231 229
294 302 294 302 308 311 309 308 306 304 304 304 304 305 303 298 297 292 284 279 270 258 243 229 220 217 204 196 198 203 205 201 198 199 200 201 203 207 209 206 206 218 225 226
310 308 297 302 305 308 310 310 308 308 310 311 309 305 304 301 298 298 298 294 277 260 249 237 231 226 205 200 203 206 207 205 203 204 202 204 203 204 208 211 215 212 202 216
309 306 303 307 312 315 316 316 313 312 313 311 309 308 307 302 297 296 297 296 280 269 263 252 245 240 213 206 208 210 213 210 202 202 202 203 203 204 208 211 213 214 213 208
306 310 314 313 313 314 314 313 311 309 310 308 308 308 307 304 298 295 299 301 286 277 282 276 272 267 229 215 212 213 212 208 203 206 207 206 206 209 210 209 213 217 218 206
283 286 292 296 300 304 307 308 309 309 307 308 309 307 306 304 301 302 305 303 288 267 281 301 297 283 251 228 219 215 210 208 204 208 208 208 211 212 212 214 218 221 220 211
292 290 292 292 293 294 295 298 301 302 304 308 309 309 307 304 304 305 304 296 288 282 312 325 316 294 265 242 223 216 212 208 206 208 207 212 214 213 214 218 222 222 216 207
295 294 294 293 291 287 287 290 293 293 295 300 303 305 307 311 313 311 303 289 292 306 313 316 313 297 280 255 223 217 213 211 209 207 205 208 213 214 216 219 222 222 219 216
295 295 294 293 293 290 286 286 286 287 290 289 289 294 299 302 305 305 298 287 301 315 312 315 310 301 290 271 227 219 214 211 210 209 209 212 217 220 220 220 221 221 220 219
293 292 293 293 292 291 289 285 280 281 282 281 280 282 287 292 296 295 281 279 305 314 313 306 304 303 300 284 233 223 221 220 217 214 214 216 220 223 224 224 224 223 222 220
290 290 289 290 291 291 290 284 277 275 274 273 272 273 275 279 281 282 286 287 299 307 306 296 303 306 302 282 244 232 228 229 228 226 225 225 227 230 231 230 229 226 224 223
289 289 288 289 289 286 285 284 279 271 268 268 264 262 263 268 268 255 264 284 293 301 297 305 314 311 308 280 253 241 239 239 238 237 236 235 235 235 236 235 234 233 231 229
286 287 286 286 284 280 282 287 286 278 270 264 262 257 249 245 252 267 269 273 285 294 293 305 316 318 309 284 268 256 249 247 250 250 244 243 242 241 240 238 236 237 235 233
282 283 282 278 275 278 281 280 278 279 276 273 269 259 248 242 246 252 256 264 270 277 281 290 303 310 303 296 287 278 270 268 264 258 255 256 254 253 251 248 246 244 242 241
280 277 277 279 275 267 268 269 270 272 268 267 272 266 253 245 240 240 244 249 255 258 261 269 280 287 290 293 292 291 287 282 278 275 270 265 263 261 260 255 254 251 247 244